User: anonymous   Login
Location: Unspecified
(0.0000°N, 0.0000°E)
Time: 09:02:41
(UTC+00:00)
Language:

Terra - Orbit

View from above orbital plane
View from above orbital plane
View from above satellite
View from above satellite

Ground track
Ground track

The orbit is defined by the following mean orbital elements,

1 25994U          26145.64088029 +.00000000 +00000-0 +75570-4 0 00005
2 25994  97.9470 196.0795 0001152 334.3287 177.4537 14.61081907    04
Epoch (UTC): 25 May 2026 15:22:52
Eccentricity: 0.0001152
inclination: 97.9470°
perigee height: 689 km
apogee height: 690 km
right ascension of ascending node: 196.0795°
argument of perigee: 334.3287°
revolutions per day: 14.61081907
mean anomaly at epoch: 177.4537°

The dashed part of the orbit path shows where the satellite is in the earth's shadow,  

DLR